{"data":{"norad_id":59201,"intl_designator":"2024-046A","name":"STARLINK-31603","alt_names":[],"object_type":"PAYLOAD","status":"ACTIVE","operator":null,"country":"US","launch_date":"2024-03-11","launch_site_code":"AFWTR","launch_vehicle":null,"mission":null,"orbit_class":"UNKNOWN","rcs_meters":null,"size_class":null,"mass_kg":null,"dimensions":null,"purposes":["comms"],"wikipedia_slug":null,"has_3d_model":false,"image_url":null,"decayed_at":null,"tle_current":{"epoch":"2026-05-25T00:42:55.538208Z","epoch_age_seconds":86627,"freshness":"FRESH","line1":"1 59201U 24046A   26145.02980947 -.00000404  00000+0 -15269-5 0  9997","line2":"2 59201  53.1594 161.0279 0001180  83.3450 276.7685 15.30191162124732","mean_motion":15.30191162,"eccentricity":0.000118,"inclination_deg":53.1594,"raan_deg":161.0279,"arg_perigee_deg":83.345,"mean_anomaly_deg":276.7685,"bstar":-1.5269e-6,"rev_number":12473,"period_min":94.105889235295,"perigee_km":474.4327595632,"apogee_km":476.05015687935,"semimajor_km":6853.3784582213,"source":"CELESTRAK","updated_at":"2026-05-25T13:38:18.863679Z"}}}